Starlink 30799

operational
NORAD ID: 58121 Int'l Des: 2023-162 Owner: SPXS Country: US Constellation: starlink
LEOCIRCULAR

About Starlink 30799

Description loading...

Live Position

Loading 3D Globe...

Upcoming Passes

Altitude History

Altitude vs Time

uPlot chart will show altitude changes over time

Two-Line Element Set

1 58121U 23162D 25351.03659667 -.00000445 00000-0 -17907-4 0 9992
2 58121 43.0019 222.4664 0001100 270.6016 89.4700 15.02533805119861
Epoch: Dec 17, 2025 • Age: 16 hours

Current Status

Altitude 562.1 km
Velocity 7.59 km/s
Sub-Earth Point 38.99°N, 7.54°W
Launch Date Oct 22, 2023
Age 2.1 years
Type internet

Technical Details

Classification Payload
Mass 730.00 kg
Dry Mass 700.00 kg
Total Mass 730.00 kg
Length 0.30 m
Diameter 4.10 m
Span 29.00 m
Shape Box + pan
Manufacturer SPXS
Bus Type Starlink V2M
Phase Status In Orbit
Owner/State SPXS/US

Large Constellations

Loading constellations...